This is the latest recevied weather packets stored in our database for station/object KF7PIZ. If no packets are shown the sender has not sent any weather packets the latest 1 day(s).
| Time | Temp. | Humidity | Pressure | Rain* | Wind** | Luminosity | Snow |
|---|---|---|---|---|---|---|---|
| 1778036235 | 17.78° C | 50% | 1012.8 hPa | 0 mm | 0.45 m/s, 169° | 0 W/m² | - |
| 1778035932 | 18.33° C | 50% | 1013.1 hPa | 0 mm | 0 m/s | 1 W/m² | - |
| 1778035629 | 18.33° C | 48% | 1012.8 hPa | 0 mm | 0 m/s | 2 W/m² | - |
| 1778035325 | 18.89° C | 47% | 1012.8 hPa | 0 mm | 0 m/s | 4 W/m² | - |
| 1778035021 | 18.89° C | 45% | 1012.6 hPa | 0 mm | 0.45 m/s, 150° | 6 W/m² | - |
| 1778034719 | 19.44° C | 45% | 1012.5 hPa | 0 mm | 0 m/s | 8 W/m² | - |
| 1778034416 | 19.44° C | 43% | 1012.3 hPa | 0 mm | 0 m/s | 10 W/m² | - |
| 1778034113 | 20° C | 42% | 1012.5 hPa | 0 mm | 0 m/s | 11 W/m² | - |
| 1778033811 | 20.56° C | 40% | 1012.5 hPa | 0 mm | 0 m/s | 14 W/m² | - |
| 1778033508 | 20.56° C | 34% | 1012.5 hPa | 0 mm | 0 m/s | 14 W/m² | - |
| 1778033205 | 21.11° C | 36% | 1012.5 hPa | 0 mm | 0 m/s | 18 W/m² | - |
| 1778032903 | 21.11° C | 34% | 1012.3 hPa | 0 mm | 0 m/s | 20 W/m² | - |
| 1778032600 | 21.67° C | 35% | 1012.2 hPa | 0 mm | 0 m/s | 23 W/m² | - |
| 1778032297 | 21.67° C | 32% | 1012.1 hPa | 0 mm | 0 m/s | 24 W/m² | - |
| 1778031995 | 22.22° C | 33% | 1012.1 hPa | 0 mm | 0.45 m/s, 205° | 30 W/m² | - |
| 1778031690 | 23.33° C | 31% | 1012.1 hPa | 0 mm | 0.89 m/s, 215° | 43 W/m² | - |
| 1778031389 | 24.44° C | 31% | 1012 hPa | 0 mm | 0 m/s | 97 W/m² | - |
| 1778031085 | 25.56° C | 27% | 1012.2 hPa | 0 mm | 0 m/s | 111 W/m² | - |
| 1778030781 | 27.22° C | 26% | 1012.1 hPa | 0 mm | 0 m/s | 133 W/m² | - |
| 1778030478 | 25.56° C | 28% | 1012.3 hPa | 0 mm | 0 m/s | 147 W/m² | - |
| 1778030176 | 25° C | 28% | 1012.3 hPa | 0 mm | 0 m/s | 167 W/m² | - |
| 1778029872 | 27.22° C | 28% | 1012.3 hPa | 0 mm | 0 m/s | 195 W/m² | - |
| 1778029571 | 27.22° C | 27% | 1012.2 hPa | 0 mm | 0 m/s | 182 W/m² | - |
| 1778029268 | 25.56° C | 27% | 1012 hPa | 0 mm | 0 m/s | 207 W/m² | - |
| 1778028965 | 26.67° C | 26% | 1012.4 hPa | 0 mm | 0.89 m/s, 247° | 215 W/m² | - |
* Rain latest hour (hover to see other rain measurements)
** Current wind speed in m/s (hover to see current wind gust speed)